EW9081 Weather Reports


time (UTC)temp
C
wind
direction
speed
KPH
gust
KPH
rain 1hr
cm
rain 24hr
cm
rain mn
cm
humidity
%
barometer
mb
20260509214956 23 332 3.2 11.3 0.00 0.00 0.00 42 1016.7
20260509214952 24 79 1.6 6.4 0.00 0.00 0.00 46 1016.6
20260509213950 23 10 3.2 11.3 0.00 0.00 0.00 43 1016.8
20260509213450 23 9 3.2 6.4 0.00 0.00 0.00 48 1016.9
20260509212951 23 5 1.6 6.4 0.00 0.00 0.00 44 1017.0
20260509212450 23 335 1.6 6.4 0.00 0.00 0.00 50 1017.1
20260509211950 23 268 1.6 3.2 0.00 0.00 0.00 44 1017.1
20260509211450 23 163 1.6 3.2 0.00 0.00 0.00 51 1017.2
20260509210950 22 78 1.6 6.4 0.00 0.00 0.00 47 1017.3
20260509210450 22 71 3.2 6.4 0.00 0.00 0.00 50 1017.4
20260509205950 22 338 3.2 6.4 0.00 0.00 0.00 55 1017.5
20260509205448 22 159 1.6 6.4 0.00 0.00 0.00 50 1017.5
20260509204948 22 239 1.6 6.4 0.00 0.00 0.00 50 1017.5
20260509204448 22 59 1.6 3.2 0.00 0.00 0.00 55 1017.6
20260509203948 22 58 1.6 4.8 0.00 0.00 0.00 48 1017.6
20260509203448 22 30 1.6 4.8 0.00 0.00 0.00 55 1017.7
20260509202952 21 244 1.6 6.4 0.00 0.00 0.00 52 1017.8
20260509202948 22 64 1.6 4.8 0.00 0.00 0.00 54 1017.8
20260509201948 21 142 0.0 6.4 0.00 0.00 0.00 50 1017.9
20260509201449 21 294 1.6 6.4 0.00 0.00 0.00 51 1017.9
20260509200948 21 5 1.6 6.4 0.00 0.00 0.00 53 1018.0
20260509200446 21 24 1.6 4.8 0.00 0.00 0.00 64 1018.2
20260509195946 20 231 1.6 6.4 0.00 0.00 0.00 56 1018.3
20260509195447 20 325 3.2 6.4 0.00 0.00 0.00 56 1018.4
20260509194946 20 347 3.2 6.4 0.00 0.00 0.00 59 1018.4
20260509194446 20 13 3.2 8.0 0.00 0.00 0.00 59 1018.4
20260509193947 20 16 3.2 8.0 0.00 0.00 0.00 58 1018.6
20260509193450 19 337 3.2 8.0 0.00 0.00 0.00 59 1018.6
20260509193445 19 291 3.2 8.0 0.00 0.00 0.00 61 1018.7
20260509192446 19 272 4.8 8.0 0.00 0.00 0.00 61 1018.8
20260509191944 19 326 3.2 8.0 0.00 0.00 0.00 63 1018.8
20260509191441 19 351 1.6 6.4 0.00 0.00 0.00 66 1018.9
20260509190947 18 200 1.6 3.2 0.00 0.00 0.00 66 1019.0
20260509190942 19 344 1.6 6.4 0.00 0.00 0.00 65 1018.9
20260509190442 19 301 1.6 4.8 0.00 0.00 0.00 64 1018.9
20260509185442 18 288 1.6 4.8 0.00 0.00 0.00 68 1019.1
20260509184942 18 290 1.6 8.0 0.00 0.00 0.00 67 1019.2
20260509184442 18 351 3.2 8.0 0.00 0.00 0.00 64 1019.2
20260509183942 18 5 3.2 8.0 0.00 0.00 0.00 67 1019.3
20260509183442 18 298 3.2 8.0 0.00 0.00 0.00 63 1019.2
20260509182939 18 325 1.6 4.8 0.00 0.00 0.00 66 1019.2
20260509182438 18 162 1.6 4.8 0.00 0.00 0.00 67 1019.3
20260509181938 17 304 1.6 8.0 0.00 0.00 0.00 67 1019.4
20260509181438 17 331 1.6 8.0 0.00 0.00 0.00 71 1019.4
20260509180938 17 246 1.6 4.8 0.00 0.00 0.00 71 1019.4
20260509180436 17 167 1.6 4.8 0.00 0.00 0.00 71 1019.4
20260509175933 17 35 1.6 4.8 0.00 0.00 0.00 70 1019.5
20260509175434 17 12 1.6 4.8 0.00 0.00 0.00 70 1019.6
20260509174939 16 194 1.6 4.8 0.00 0.00 0.00 72 1019.7
20260509174934 17 38 1.6 4.8 0.00 0.00 0.00 72 1019.7
20260509174546 16 257 1.6 4.8 0.00 0.00 0.00 71 1019.8
20260509173431 16 305 3.2 6.4 0.00 0.00 0.00 73 1019.8
20260509172932 16 5 3.2 6.4 0.00 0.00 0.00 71 1019.9
20260509172432 16 312 1.6 4.8 0.00 0.00 0.00 74 1020.0
20260509171929 16 349 1.6 4.8 0.00 0.00 0.00 73 1020.0
20260509171430 16 351 1.6 4.8 0.00 0.00 0.00 75 1019.9
20260509170930 16 188 1.6 3.2 0.00 0.00 0.00 76 1020.0
20260509170428 15 112 1.6 4.8 0.00 0.00 0.00 76 1019.9
20260509165926 15 146 1.6 4.8 0.00 0.00 0.00 77 1019.9
20260509165426 15 178 0.0 3.2 0.00 0.00 0.00 77 1020.0
20260509164930 14 175 1.6 4.8 0.00 0.00 0.00 78 1020.2
20260509164925 15 177 1.6 4.8 0.00 0.00 0.00 80 1020.2
20260509163927 14 176 1.6 6.4 0.00 0.00 0.00 79 1020.2
20260509163427 14 169 0.0 6.4 0.00 0.00 0.00 78 1020.2
20260509162925 14 123 0.0 6.4 0.00 0.00 0.00 81 1020.3
20260509162425 14 123 0.0 6.4 0.00 0.00 0.00 80 1020.3
20260509161927 13 159 1.6 4.8 0.00 0.00 0.00 82 1020.4
20260509161427 13 21 1.6 4.8 0.00 0.00 0.00 83 1020.4
20260509160925 13 60 1.6 3.2 0.00 0.00 0.00 83 1020.5
20260509160426 13 53 1.6 3.2 0.00 0.00 0.00 86 1020.4
20260509155927 13 44 0.0 3.2 0.00 0.00 0.00 87 1020.6
20260509155431 12 177 1.6 6.4 0.00 0.00 0.00 88 1020.7
20260509155425 12 177 1.6 4.8 0.00 0.00 0.00 86 1020.7
20260509154926 12 177 1.6 4.8 0.00 0.00 0.00 88 1020.7
20260509153927 12 178 1.6 6.4 0.00 0.00 0.00 89 1020.6
20260509153425 11 173 0.0 4.8 0.00 0.00 0.00 89 1020.8
20260509152931 11 162 0.0 3.2 0.00 0.00 0.00 91 1020.7
20260509152927 11 173 0.0 4.8 0.00 0.00 0.00 90 1020.7
20260509151925 10 162 0.0 3.2 0.00 0.00 0.00 91 1020.8
20260509151427 10 162 0.0 3.2 0.00 0.00 0.00 92 1020.8
20260509150926 10 162 0.0 3.2 0.00 0.00 0.00 92 1020.8
20260509150433 9 162 0.0 1.6 0.00 0.00 0.00 94 1021.1
20260509150426 10 162 0.0 3.2 0.00 0.00 0.00 93 1020.9
20260509145927 10 162 0.0 3.2 0.00 0.00 0.00 93 1021.1
20260509144925 9 162 0.0 1.6 0.00 0.00 0.00 94 1021.1
20260509144426 8 162 0.0 3.2 0.00 0.00 0.00 94 1021.1
20260509143928 8 162 0.0 3.2 0.00 0.00 0.00 95 1021.1
20260509143924 8 162 0.0 3.2 0.00 0.00 0.00 94 1021.1
20260509142925 8 173 0.0 1.6 0.00 0.00 0.00 95 1021.1
20260509142423 8 171 0.0 0.0 0.00 0.00 0.00 95 1021.1
20260509141921 8 170 0.0 0.0 0.00 0.00 0.00 95 1020.9
20260509141422 8 170 0.0 0.0 0.00 0.00 0.00 95 1020.8
20260509140922 7 170 0.0 0.0 0.00 0.00 0.00 95 1020.8
20260509140422 7 170 0.0 0.0 0.00 0.00 0.00 95 1020.6
20260509135923 7 171 0.0 0.0 0.00 0.00 0.00 95 1020.7
20260509135427 7 170 0.0 3.2 0.00 0.00 0.00 95 1020.8
20260509135422 7 170 0.0 0.0 0.00 0.00 0.00 95 1020.7
20260509134421 7 170 0.0 3.2 0.00 0.00 0.00 95 1020.9
20260509133921 7 171 0.0 3.2 0.00 0.00 0.00 94 1020.8
20260509133420 7 171 0.0 3.2 0.00 0.00 0.00 95 1020.7
20260509132923 6 180 0.0 3.2 0.00 0.00 0.00 95 1020.6
20260509132919 6 179 0.0 3.2 0.00 0.00 0.00 95 1020.6
20260509131919 6 180 0.0 3.2 0.00 0.00 0.00 94 1020.6
20260509131420 6 180 0.0 3.2 0.00 0.00 0.00 94 1020.7
20260509130921 6 180 0.0 3.2 0.00 0.00 0.00 94 1020.7
20260509130423 6 180 0.0 0.0 0.00 0.00 0.00 93 1020.8
20260509130419 6 180 0.0 3.2 0.00 0.00 0.00 93 1020.7
20260509125419 6 180 0.0 3.2 0.00 0.00 0.00 93 1020.8
20260509124919 6 180 0.0 3.2 0.00 0.00 0.00 93 1020.8
20260509124417 6 180 0.0 0.0 0.00 0.00 0.00 92 1020.8
20260509123921 6 180 0.0 3.2 0.00 0.00 0.00 92 1020.9
20260509123917 6 180 0.0 0.0 0.00 0.00 0.00 92 1020.8
20260509122921 6 180 0.0 3.2 0.00 0.00 0.00 93 1020.9
20260509122915 6 180 0.0 3.2 0.00 0.00 0.00 93 1020.9
20260509121915 6 180 1.6 3.2 0.00 0.00 0.00 94 1020.9
20260509121415 6 173 0.0 3.2 0.00 0.00 0.00 94 1020.9
20260509120916 6 172 1.6 3.2 0.00 0.00 0.00 94 1021.1
20260509120416 6 171 0.0 3.2 0.00 0.00 0.00 93 1021.1
20260509115915 6 171 0.0 0.0 0.00 0.00 0.00 93 1021.1
20260509115413 6 171 0.0 0.0 0.00 0.00 0.00 94 1021.3
20260509114913 6 171 0.0 1.6 0.00 0.00 0.00 92 1021.2
20260509114413 7 171 0.0 1.6 0.00 0.00 0.00 92 1021.1
20260509113919 7 171 0.0 3.2 0.00 0.00 0.00 93 1021.2
20260509113913 7 171 0.0 3.2 0.00 0.00 0.00 92 1021.2
20260509112912 7 171 0.0 3.2 0.00 0.00 0.00 94 1021.2
20260509112413 7 200 0.0 3.2 0.00 0.00 0.00 94 1021.2
20260509111918 7 188 0.0 3.2 0.00 0.00 0.00 94 1021.3
20260509111914 7 186 0.0 3.2 0.00 0.00 0.00 94 1021.3
20260509111526 7 188 0.0 3.2 0.00 0.00 0.00 94 1021.2
20260509110412 7 188 0.0 3.2 0.00 0.00 0.00 94 1021.3
20260509105911 7 191 0.0 3.2 0.00 0.00 0.00 94 1021.3
20260509105411 6 191 0.0 3.2 0.00 0.00 0.00 92 1021.3
20260509104911 6 191 0.0 3.2 0.00 0.00 0.00 92 1021.4
20260509104411 7 190 0.0 3.2 0.00 0.00 0.00 92 1021.4
20260509103911 7 191 0.0 3.2 0.00 0.00 0.00 92 1021.5
20260509103418 7 191 0.0 0.0 0.00 0.00 0.00 92 1021.7
20260509103410 7 190 0.0 1.6 0.00 0.00 0.00 92 1021.5
20260509102910 7 191 0.0 1.6 0.00 0.00 0.00 93 1021.6
20260509102411 7 191 0.0 1.6 0.00 0.00 0.00 92 1021.6
20260509101414 7 191 0.0 0.0 0.00 0.00 0.00 93 1021.8
20260509101408 7 191 0.0 0.0 0.00 0.00 0.00 92 1021.7
20260509100909 7 191 0.0 0.0 0.00 0.00 0.00 93 1021.7
20260509095908 7 191 0.0 0.0 0.00 0.00 0.00 93 1021.7
20260509095408 7 191 0.0 0.0 0.00 0.00 0.00 93 1021.8
20260509094909 7 191 0.0 0.0 0.00 0.00 0.00 93 1021.7
20260509094409 7 191 0.0 0.0 0.00 0.00 0.00 92 1021.8
20260509093909 7 191 0.0 3.2 0.00 0.00 0.00 91 1021.8
20260509093409 7 191 0.0 3.2 0.00 0.00 0.00 92 1021.8
20260509092909 7 191 0.0 3.2 0.00 0.00 0.00 91 1021.9
20260509092406 7 191 0.0 3.2 0.00 0.00 0.00 91 1021.9
20260509091907 7 191 0.0 1.6 0.00 0.00 0.00 90 1021.8
20260509091406 8 191 0.0 3.2 0.00 0.00 0.00 90 1021.9
20260509090911 8 191 0.0 3.2 0.00 0.00 0.00 91 1022.0
20260509090907 8 191 0.0 3.2 0.00 0.00 0.00 90 1022.0
20260509085907 8 190 0.0 3.2 0.00 0.00 0.00 91 1022.0
20260509085407 8 190 0.0 3.2 0.00 0.00 0.00 90 1022.0
20260509084912 8 193 0.0 3.2 0.00 0.00 0.00 90 1022.0
20260509084907 8 192 0.0 3.2 0.00 0.00 0.00 89 1022.0
20260509083912 8 192 0.0 3.2 0.00 0.00 0.00 90 1022.0
20260509083906 8 192 0.0 1.6 0.00 0.00 0.00 90 1022.0
20260509082907 8 192 0.0 3.2 0.00 0.00 0.00 91 1022.1
20260509082408 9 192 1.6 3.2 0.00 0.00 0.00 90 1022.1
20260509081904 9 192 1.6 3.2 0.00 0.00 0.00 91 1022.1
20260509081406 9 195 0.0 3.2 0.00 0.00 0.00 90 1022.2
20260509080903 9 275 0.0 1.6 0.00 0.00 0.00 90 1022.1
20260509080402 9 296 0.0 0.0 0.00 0.00 0.00 90 1022.2
20260509075908 9 296 0.0 0.0 0.00 0.00 0.00 89 1022.1
20260509075902 9 296 0.0 0.0 0.00 0.00 0.00 88 1022.2
20260509074903 9 296 0.0 0.0 0.00 0.00 0.00 90 1022.2
20260509074403 9 296 0.0 3.2 0.00 0.00 0.00 89 1022.2
20260509073900 9 296 0.0 3.2 0.00 0.00 0.00 89 1022.2
20260509073400 9 295 0.0 0.0 0.00 0.00 0.00 89 1022.2
20260509072902 10 296 0.0 3.2 0.00 0.00 0.00 88 1022.2
20260509072401 10 295 0.0 3.2 0.00 0.00 0.00 88 1022.2
20260509071900 10 298 0.0 3.2 0.00 0.00 0.00 89 1022.3
20260509071401 10 262 0.0 3.2 0.00 0.00 0.00 88 1022.3
20260509070906 10 304 0.0 4.8 0.00 0.00 0.00 88 1022.3
20260509070901 10 304 0.0 4.8 0.00 0.00 0.00 88 1022.3
20260509065900 10 252 0.0 4.8 0.00 0.00 0.00 88 1022.2
20260509065401 10 248 0.0 4.8 0.00 0.00 0.00 87 1022.2
20260509064901 10 296 0.0 4.8 0.00 0.00 0.00 87 1022.2
20260509064400 10 269 1.6 8.0 0.00 0.00 0.00 87 1022.2
20260509063859 10 252 1.6 8.0 0.00 0.00 0.00 87 1022.2
20260509063359 10 218 1.6 8.0 0.00 0.00 0.00 87 1022.2
20260509062859 10 221 0.0 8.0 0.00 0.00 0.00 87 1022.2
20260509062359 10 222 1.6 6.4 0.00 0.00 0.00 87 1022.2
20260509061904 10 260 1.6 4.8 0.00 0.00 0.00 86 1022.2
20260509061859 10 201 1.6 6.4 0.00 0.00 0.00 87 1022.2
20260509060859 10 261 1.6 8.0 0.00 0.00 0.00 86 1022.2
20260509060359 11 252 0.0 8.0 0.00 0.00 0.00 86 1022.2
20260509055859 11 236 3.2 8.0 0.00 0.00 0.00 86 1022.2
20260509055404 11 219 0.0 4.8 0.00 0.00 0.00 85 1022.2
20260509055400 11 208 3.2 8.0 0.00 0.00 0.00 86 1022.3
20260509054857 11 200 1.6 4.8 0.00 0.00 0.00 86 1022.2
20260509053857 11 248 0.0 4.8 0.00 0.00 0.00 85 1022.2
20260509053358 11 242 1.6 4.8 0.00 0.00 0.00 85 1022.2
20260509052857 11 247 1.6 3.2 0.00 0.00 0.00 84 1022.3
20260509052357 11 251 1.6 11.3 0.00 0.00 0.00 84 1022.2
20260509051902 11 251 1.6 6.4 0.00 0.00 0.00 83 1022.2
20260509051858 11 229 1.6 11.3 0.00 0.00 0.00 84 1022.1
20260509051510 11 221 3.2 8.0 0.00 0.00 0.00 83 1022.2
20260509050357 11 263 3.2 8.0 0.00 0.00 0.00 83 1022.1
20260509045857 11 225 3.2 8.0 0.00 0.00 0.00 83 1021.9
20260509045357 11 258 1.6 6.4 0.00 0.00 0.00 83 1021.9
20260509044903 12 251 1.6 6.4 0.00 0.00 0.00 82 1022.0
20260509044858 11 259 1.6 6.4 0.00 0.00 0.00 82 1022.0
20260509043855 12 254 1.6 8.0 0.00 0.00 0.00 82 1021.9
20260509043355 12 234 1.6 8.0 0.00 0.00 0.00 81 1021.9
20260509042855 12 250 1.6 4.8 0.00 0.00 0.00 81 1021.8
20260509042355 12 238 1.6 4.8 0.00 0.00 0.00 81 1021.8
20260509041854 12 259 1.6 4.8 0.00 0.00 0.00 80 1021.8
20260509041353 12 269 1.6 6.4 0.00 0.00 0.00 79 1021.7
20260509040852 12 257 1.6 6.4 0.00 0.00 0.00 79 1021.7
20260509040354 13 254 1.6 6.4 0.00 0.00 0.00 78 1021.6
20260509035853 13 257 1.6 8.0 0.00 0.00 0.00 77 1021.7
20260509035353 13 223 1.6 8.0 0.00 0.00 0.00 77 1021.6
20260509034854 13 258 1.6 9.7 0.00 0.00 0.00 77 1021.5
20260509034352 13 253 1.6 9.7 0.00 0.00 0.00 76 1021.4
20260509033858 14 263 1.6 9.7 0.00 0.00 0.00 74 1021.4
20260509033854 13 243 1.6 6.4 0.00 0.00 0.00 75 1021.4
20260509033352 13 259 1.6 6.4 0.00 0.00 0.00 75 1021.4
20260509032350 14 217 1.6 9.7 0.00 0.00 0.00 73 1021.3
20260509031851 15 266 1.6 6.4 0.00 0.00 0.00 73 1021.4
20260509031352 15 284 1.6 6.4 0.00 0.00 0.00 71 1021.3
20260509031348 15 299 3.2 6.4 0.00 0.00 0.00 72 1021.4
20260509030348 15 271 1.6 8.0 0.00 0.00 0.00 71 1021.3
20260509025849 15 269 1.6 8.0 0.00 0.00 0.00 70 1021.2
20260509025347 15 239 1.6 8.0 0.00 0.00 0.00 69 1021.3
20260509024846 16 247 1.6 8.0 0.00 0.00 0.00 68 1021.2
20260509024352 16 269 3.2 9.7 0.00 0.00 0.00 67 1021.1
20260509024347 16 276 3.2 9.7 0.00 0.00 0.00 68 1021.2
20260509023848 16 288 3.2 9.7 0.00 0.00 0.00 67 1021.1
20260509022846 16 269 1.6 6.4 0.00 0.00 0.00 67 1021.0
20260509022348 16 259 1.6 6.4 0.00 0.00 0.00 67 1021.0
20260509021844 16 271 1.6 6.4 0.00 0.00 0.00 66 1021.1
20260509021355 18 245 3.2 11.3 0.00 0.00 0.00 64 1020.9
20260509021345 17 240 1.6 12.9 0.00 0.00 0.00 65 1021.0
20260509020846 17 271 3.2 12.9 0.00 0.00 0.00 65 1021.0
20260509020345 17 173 3.2 12.9 0.00 0.00 0.00 63 1021.0
20260509015845 17 256 3.2 12.9 0.00 0.00 0.00 63 1021.0
20260509015346 18 304 3.2 11.3 0.00 0.00 0.00 63 1020.9
20260509014350 17 267 3.2 16.1 0.00 0.00 0.00 63 1020.9
20260509014344 17 242 3.2 16.1 0.00 0.00 0.00 63 1020.9
20260509013342 18 218 3.2 16.1 0.00 0.00 0.00 62 1020.9
20260509012844 18 238 3.2 16.1 0.00 0.00 0.00 62 1021.0
20260509012348 18 247 3.2 9.7 0.00 0.00 0.00 63 1021.0
20260509012343 18 259 3.2 9.7 0.00 0.00 0.00 62 1021.0
20260509011343 18 235 4.8 11.3 0.00 0.00 0.00 61 1021.0
20260509010842 18 238 4.8 11.3 0.00 0.00 0.00 60 1021.1
20260509010342 18 241 4.8 11.3 0.00 0.00 0.00 59 1021.2
20260509005843 18 300 3.2 11.3 0.00 0.00 0.00 59 1021.2
20260509005343 19 248 3.2 11.3 0.00 0.00 0.00 60 1021.2
20260509004844 18 223 4.8 14.5 0.00 0.00 0.00 60 1021.2
20260509004344 18 233 4.8 14.5 0.00 0.00 0.00 60 1021.2
20260509003842 19 265 4.8 14.5 0.00 0.00 0.00 60 1021.2
20260509003344 19 294 4.8 14.5 0.00 0.00 0.00 60 1021.2
20260509002844 19 307 4.8 12.9 0.00 0.00 0.00 60 1021.2
20260509002343 18 296 6.4 17.7 0.00 0.00 0.00 59 1021.2
20260509001842 19 299 6.4 17.7 0.00 0.00 0.00 59 1021.2
20260509001344 19 346 4.8 14.5 0.00 0.00 0.00 59 1021.1
20260509000841 19 242 4.8 11.3 0.00 0.00 0.00 59 1021.1
20260509000340 18 302 6.4 14.5 0.00 0.00 0.00 59 1021.1
20260508235840 19 303 6.4 14.5 0.00 0.00 0.00 59 1021.2
20260508235339 19 334 6.4 14.5 0.00 0.00 0.00 60 1021.2
20260508234838 19 294 4.8 14.5 0.00 0.00 0.00 58 1021.2
20260508234339 18 252 6.4 14.5 0.00 0.00 0.00 60 1021.2
20260508233839 18 301 6.4 16.1 0.00 0.00 0.00 58 1021.3
20260508233343 19 315 6.4 12.9 0.00 0.00 0.00 60 1021.3
20260508233338 19 302 6.4 16.1 0.00 0.00 0.00 59 1021.3
20260508232344 18 317 6.4 17.7 0.00 0.00 0.00 59 1021.3
20260508232340 18 306 6.4 12.9 0.00 0.00 0.00 60 1021.3
20260508231340 18 11 6.4 17.7 0.00 0.00 0.00 59 1021.2
20260508230838 19 213 4.8 16.1 0.00 0.00 0.00 59 1021.3
20260508230339 18 265 6.4 16.1 0.00 0.00 0.00 61 1021.4
20260508225838 18 9 6.4 16.1 0.00 0.00 0.00 60 1021.2
20260508225340 18 297 6.4 12.9 0.00 0.00 0.00 60 1021.4
20260508224836 18 298 8.0 14.5 0.00 0.00 0.00 61 1021.4
20260508224336 18 336 8.0 14.5 0.00 0.00 0.00 58 1021.3
20260508223841 18 322 4.8 12.9 0.00 0.00 0.00 59 1021.3
20260508223836 18 336 6.4 14.5 0.00 0.00 0.00 60 1021.4
20260508222834 18 304 4.8 12.9 0.00 0.00 0.00 61 1021.3
20260508222334 18 277 4.8 12.9 0.00 0.00 0.00 57 1021.3
20260508221834 18 332 4.8 12.9 0.00 0.00 0.00 59 1021.3
20260508221336 18 13 4.8 12.9 0.00 0.00 0.00 61 1021.4
20260508220841 18 295 4.8 11.3 0.00 0.00 0.00 58 1021.5
20260508220834 18 306 6.4 12.9 0.00 0.00 0.00 60 1021.4
20260508220334 18 334 6.4 11.3 0.00 0.00 0.00 60 1021.5
20260508215334 18 249 4.8 11.3 0.00 0.00 0.00 64 1021.6